Regional Weather Roundup
Issued by NWS

Home | Current Version | Previous Version | Graphics & Text | Print | Product List | Glossary On
Versions: 1 2 3 4 5 6 7 8 9 10 11 12 13 14 15 16 17 18 19 20 21 22 23 24 25 26 27 28 29 30 31 32 33 34 35 36 37 38 39 40 41 42 43 44 45 46 47 48 49 50
362
ASUS45 KSLC 060910
RWRUT

UTAH REGIONAL WEATHER ROUNDUP
NATIONAL WEATHER SERVICE SALT LAKE CITY UT
200 AM MST SAT FEB 06 2016

UTZ001>011-023>025-061000-

NORTHERN UTAH

CITY           SKY/WX    TMP DP  RH WIND       PRES   REMARKS
BRIGHAM CITY   CLOUDY    28  25  88 SE5       30.52F WCI  23
HILL AFB       PTCLDY    26  13  59 E9        30.50F WCI  16
LOGAN          FOG       14  14 100 CALM      30.50F VSB<1/4
OGDEN          PTCLDY    24  19  81 S6        30.51S WCI  17
PROVO AIRPORT    N/A    N/A N/A N/A CALM      30.55S VSB<1/4
SALT LAKE CITY CLEAR     25  20  81 SE9       30.52F WCI  15
VERNAL         CLOUDY     4   0  83 NW3       30.53S
WENDOVER       PTCLDY    21  18  86 NE5       30.51S WCI  15
HEBER CITY     PTCLDY     3   1  92 CALM      30.51R
WEST JORDAN    CLEAR     25  21  86 S12       30.52F WCI  14

$$

UTZ012>022-026-027-061000-

SOUTHERN/CENTRAL UTAH

CITY           SKY/WX    TMP DP  RH WIND       PRES   REMARKS
BLANDING       CLEAR     15   8  73 NE7       30.56S WCI   5
BRYCE CANYON   PTCLDY     5   1  83 W9        30.47S WCI  -9
CEDAR CITY     MOCLDY     6   3  87 NE5       30.49S FOG     WCI  -3
DELTA          CLOUDY     9   7  92 CALM      30.54F VSB<1/4
HANKSVILLE     CLOUDY    18  14  86 N5        30.64R WCI  11
MILFORD        FOG       -2  -5  87 S7        30.53R VSB 1/4 WCI -15
MOAB/CYNLANDS  CLOUDY    16  14  92 E8        30.58S WCI   5
PRICE          PTCLDY     8   3  80 N5        30.49F WCI   0
ST GEORGE      MOSUNNY   36  21  55 CALM      30.54R
KANAB          CLEAR     30  21  69 N14       30.53S WCI  20

$$

REGIONAL REPORTS     COLORADO/ARIZONA

CITY           SKY/WX    TMP DP  RH WIND       PRES   REMARKS
CRAIG, CO      CLOUDY   -10 -14  82 CALM      30.50S
GRAND JUNCTION CLOUDY     5   3  91 E5        30.58R WCI  -4
RIFLE          CLOUDY     4  -1  80 CALM      30.57S
MONTROSE       CLOUDY     5  -1  76 SE10      30.56F WCI -10
CORTEZ         CLOUDY     8   3  80 E5        30.49R WCI   0
PAGE, AZ       CLEAR     29  20  69 SE5       30.52S WCI  24
GRAND CANYON   PTCLDY    12   7  80 NE7       30.48S WCI   1
KINGMAN        CLEAR     34 N/A N/A E5        30.43F WCI  30
FLAGSTAFF      CLEAR     15   9  76 CALM      30.47R

$$

REGIONAL REPORTS    NEVADA/IDAHO/WYOMING

CITY           SKY/WX    TMP DP  RH WIND       PRES   REMARKS
LAS VEGAS, NV  CLEAR     42  25  50 SW5       30.43S
ELY            PTCLDY     8   3  80 S17       30.48F WCI -10
ELKO           PTCLDY     7   4  87 CALM      30.51S
POCATELLO, ID  CLOUDY    13  12  96 VRB3      30.49R
BURLEY         CLEAR     22  19  89 CALM      30.44S
EVANSTON, WY   CLOUDY    15  12  88 SW14      30.43R WCI   0
ROCK SPRINGS   CLOUDY    21  15  78 W20       30.36F WCI   6

$$




USA.gov is the U.S. government's official web portal to all federal, state and local government web resources and services.